Date,TemperatureHighF,TemperatureAvgF,TemperatureLowF,DewpointHighF,DewpointAvgF,DewpointLowF,HumidityHigh,HumidityAvg,HumidityLow,PressureMaxIn,PressureMinIn,WindSpeedMaxMPH,WindSpeedAvgMPH,GustSpeedMaxMPH,PrecipitationSumIn
2012-1-1,53.0,26.5,38.0,45.0,-26.1,-99.9,93,42,69,30.08,29.67,7,-450,14,0.02
2012-1-2,44.0,32.1,30.0,36.0,10.3,-99.9,75,55,50,29.85,29.73,6,-103,17,0.01
2012-1-3,30.0,17.8,17.0,23.0,-18.9,-99.9,80,42,44,30.18,29.85,12,-262,21,0.00
2012-1-4,28.0,17.2,12.0,22.0,-11.6,-99.9,77,52,59,30.26,29.96,6,-201,10,0.00
2012-1-5,40.0,27.6,26.0,28.0,7.0,-99.9,86,64,60,29.97,29.89,7,-133,14,0.00
2012-1-6,55.0,37.4,25.0,37.0,18.5,-99.9,91,64,49,29.93,29.76,3,-69,11,0.00
2012-1-7,63.0,47.7,36.0,45.0,35.3,29.0,79,63,43,30.00,29.72,4,0,10,0.00
2012-1-8,46.0,38.6,29.0,32.0,28.4,22.0,76,67,53,30.31,30.00,7,1,12,0.00
2012-1-9,40.0,32.3,26.0,30.0,23.9,21.0,84,72,54,30.31,29.98,1,0,5,0.00
2012-1-10,46.0,26.4,29.0,35.0,-6.5,-99.9,92,57,62,30.02,29.92,5,-286,15,0.00
2012-1-11,45.0,13.5,25.0,35.0,-41.2,-99.9,95,42,67,30.05,29.64,1,-534,5,0.00
2012-1-12,-200.0,0.0,200.0,-99.9,-99.9,-99.9,0,0,100,29.62,29.35,0,-999,0,0.00
2012-1-13,-200.0,0.0,200.0,-99.9,-99.9,-99.9,0,0,100,29.84,29.22,0,-999,0,0.00
2012-1-14,-200.0,0.0,200.0,-99.9,-99.9,-99.9,0,0,100,30.06,29.84,0,-999,0,0.00
2012-1-15,26.0,6.5,17.0,10.0,-67.6,-99.9,70,18,54,30.57,30.06,3,-689,5,0.00
2012-1-16,18.0,4.5,13.0,10.0,-67.4,-99.9,88,24,67,30.58,30.10,0,-701,0,0.00
2012-1-17,-200.0,0.0,200.0,-99.9,-99.9,-99.9,0,0,100,30.09,29.57,0,-999,0,0.00
2012-1-18,34.0,7.8,24.0,18.0,-70.1,-99.9,70,15,50,30.16,29.58,5,-735,10,0.00
2012-1-19,-200.0,0.0,200.0,-99.9,-99.9,-99.9,0,0,100,30.20,29.87,0,-999,0,0.00
2012-1-20,-200.0,0.0,200.0,-99.9,-99.9,-99.9,0,0,100,30.24,29.89,0,-999,0,0.00
2012-1-21,-200.0,0.0,200.0,-99.9,-99.9,-99.9,0,0,100,30.24,29.90,0,-999,0,0.00
2012-1-22,-200.0,0.0,200.0,-99.9,-99.9,-99.9,0,0,100,30.44,30.24,0,-999,0,0.00
2012-1-23,-200.0,0.0,200.0,-99.9,-99.9,-99.9,0,0,100,30.31,29.85,0,-999,0,0.00
2012-1-24,-200.0,0.0,200.0,-99.9,-99.9,-99.9,0,0,100,30.14,29.87,0,-999,0,0.00
2012-1-25,-200.0,0.0,200.0,-99.9,-99.9,-99.9,0,0,100,30.31,30.13,0,-999,0,0.00
2012-1-26,-200.0,0.0,200.0,-99.9,-99.9,-99.9,0,0,100,30.18,29.72,0,-999,0,0.00
2012-1-27,48.0,6.7,40.0,40.0,-81.0,-99.9,76,10,69,29.92,29.37,13,-860,21,0.01
2012-1-28,46.0,9.5,37.0,34.0,-69.5,-99.9,73,15,55,30.09,29.86,6,-749,14,0.01
2012-1-29,43.0,18.5,33.0,31.0,-43.5,-99.9,89,24,42,30.19,30.02,5,-538,25,0.16
2012-1-30,40.0,23.9,31.0,30.0,-15.9,-99.9,90,42,46,30.33,30.05,5,-312,14,0.02
2012-1-31,60.0,46.1,33.0,39.0,31.8,20.0,78,58,44,30.20,30.01,5,1,11,0.01
2012-2-1,64.0,53.7,45.0,50.0,42.3,34.0,86,66,54,30.01,29.90,6,1,17,0.03
2012-2-2,48.0,25.3,37.0,42.0,-18.5,-99.9,83,46,64,30.25,29.93,6,-380,18,0.01
2012-2-3,44.0,15.7,30.0,30.0,-44.4,-99.9,74,30,56,30.47,30.27,5,-554,12,0.00
2012-2-4,-200.0,0.0,200.0,-99.9,-99.9,-99.9,0,0,100,30.34,30.06,0,-999,0,0.00
2012-2-5,42.0,13.9,27.0,28.0,-50.4,-99.9,81,27,57,30.19,30.03,6,-605,11,0.00
2012-2-6,28.0,3.3,27.0,23.0,-85.3,-99.9,84,10,80,30.20,29.98,0,-880,0,0.00
2012-2-7,-200.0,0.0,200.0,-99.9,-99.9,-99.9,0,0,100,30.19,29.98,0,-999,0,0.00
2012-2-8,33.0,1.4,32.0,28.0,-94.6,-99.9,82,3,80,30.24,30.06,0,-957,0,0.00
2012-2-9,40.0,6.5,33.0,29.0,-77.2,-99.9,72,12,65,30.20,30.06,5,-820,13,0.11
2012-2-22,60.0,35.2,45.0,39.0,-10.3,-99.9,76,35,38,29.79,29.43,6,-343,14,0.00
2012-2-23,60.0,21.8,45.0,39.0,-53.0,-99.9,78,18,39,29.67,29.36,6,-651,13,0.00
2012-2-24,49.0,3.7,45.0,38.0,-90.5,-99.9,77,4,51,29.59,29.35,2,-922,4,0.03
2012-2-25,38.0,10.0,34.0,23.0,-69.8,-99.9,65,15,52,30.09,29.49,12,-744,21,0.00
2012-2-26,46.0,24.7,28.0,28.0,-16.7,-99.9,78,41,48,30.42,30.08,7,-328,14,0.00
2012-2-27,57.0,26.5,27.0,39.0,-34.8,-99.9,63,26,46,30.39,30.09,5,-506,13,0.00
2012-2-28,52.0,42.3,32.0,32.0,27.6,23.0,71,57,41,30.41,30.17,10,2,20,0.00
2012-2-29,38.0,9.0,31.0,29.0,-67.1,-99.9,85,20,69,30.32,29.64,0,-740,0,0.00
2012-3-1,-200.0,0.0,200.0,-99.9,-99.9,-99.9,0,0,100,29.91,29.56,0,-999,0,0.00
2012-3-2,-200.0,0.0,200.0,-99.9,-99.9,-99.9,0,0,100,30.03,29.69,0,-999,0,0.00
2012-3-3,46.0,6.2,43.0,29.0,-82.0,-99.9,56,8,51,29.69,29.47,6,-860,13,0.00
2012-3-4,43.0,8.6,37.0,29.0,-74.2,-99.9,67,12,56,29.77,29.60,7,-797,15,0.00
2012-3-5,-200.0,0.0,200.0,-99.9,-99.9,-99.9,0,0,100,30.35,29.77,0,-999,0,0.00
2012-3-6,42.0,10.5,34.0,25.0,-66.1,-99.9,70,16,50,30.60,30.35,1,-726,7,0.00
2012-3-7,-200.0,0.0,200.0,-99.9,-99.9,-99.9,0,0,100,30.52,30.28,0,-999,0,0.00
2012-3-8,63.0,0.0,200.0,-99.9,-99.9,-99.9,0,0,100,30.28,29.83,4,-999,11,0.00
2012-3-9,63.0,3.1,59.0,55.0,-92.4,-99.9,80,3,66,30.27,29.83,9,-950,13,0.07
2012-3-10,35.0,0.5,35.0,17.0,-98.3,-99.9,48,1,48,30.50,30.27,0,-985,0,0.00
2012-3-11,59.0,16.3,43.0,38.0,-56.6,-99.9,69,18,43,30.50,30.33,3,-678,10,0.00
2012-3-12,67.0,27.3,37.0,46.0,-30.3,-99.9,85,31,38,30.37,30.09,4,-496,11,0.00
2012-3-13,-200.0,0.0,200.0,-99.9,-99.9,-99.9,0,0,100,30.08,29.91,0,-999,0,0.00
2012-3-14,73.0,40.4,53.0,44.0,-11.5,-99.9,61,27,33,30.14,29.98,6,-374,13,0.00
2012-3-15,64.0,51.2,48.0,53.0,34.1,-99.9,88,63,60,30.22,30.12,2,-76,7,0.00
2012-3-16,64.0,1.3,64.0,56.0,-96.6,-99.9,74,2,73,30.20,30.07,0,-978,3,0.00
2012-3-17,71.0,30.2,52.0,59.0,-28.7,-99.9,88,33,62,30.29,30.14,2,-534,9,0.00
2012-3-18,65.0,13.8,54.0,56.0,-64.6,-99.9,91,18,70,30.34,30.18,2,-768,7,0.00
2012-3-19,75.0,29.2,63.0,62.0,-33.1,-99.9,88,30,60,30.19,30.10,4,-580,9,0.00
2012-3-20,75.0,31.1,63.0,64.0,-31.5,-99.9,86,31,63,30.26,30.14,1,-568,6,0.00
2012-3-21,64.0,4.3,60.0,59.0,-89.0,-99.9,87,6,83,30.31,30.22,0,-930,0,0.00
2012-3-22,-200.0,0.0,200.0,-99.9,-99.9,-99.9,0,0,100,30.26,30.09,0,-999,0,0.00
2012-3-23,80.0,36.8,62.0,65.0,-20.3,-99.9,79,31,52,30.09,29.93,0,-503,10,0.01
2012-3-24,62.0,24.4,52.0,56.0,-33.1,-99.9,92,38,80,29.98,29.87,0,-559,2,0.02
2012-3-25,-200.0,0.0,200.0,-99.9,-99.9,-99.9,0,0,100,29.87,29.69,0,-999,0,0.02
2012-3-26,51.0,15.2,36.0,32.0,-58.6,-99.9,48,14,35,30.17,29.70,12,-648,21,0.00
2012-3-27,53.0,19.8,30.0,25.0,-39.6,-99.9,52,23,31,30.32,30.14,5,-482,12,0.00
2012-3-28,66.0,6.0,63.0,54.0,-87.9,-99.9,66,5,50,30.14,29.57,3,-913,10,0.00
2012-3-29,-200.0,0.0,200.0,-99.9,-99.9,-99.9,0,0,100,30.00,29.59,0,-999,0,0.00
2012-3-30,52.0,0.7,52.0,38.0,-97.9,-99.9,59,1,59,30.07,29.82,0,-985,0,0.00
2012-3-31,-200.0,0.0,200.0,-99.9,-99.9,-99.9,0,0,100,29.90,29.73,0,-999,0,0.00
2012-4-1,-200.0,0.0,200.0,-99.9,-99.9,-99.9,0,0,100,29.87,29.56,0,-999,0,0.00
2012-4-2,-200.0,0.0,200.0,-99.9,-99.9,-99.9,0,0,100,29.87,29.53,0,-999,0,0.00
2012-4-3,66.0,19.0,47.0,35.0,-55.9,-99.9,58,14,29,29.95,29.76,4,-668,10,0.00
2012-4-4,71.0,50.9,48.0,45.0,16.3,-99.9,62,37,32,29.78,29.51,7,-157,14,0.00
2012-4-5,59.0,49.7,40.0,39.0,32.2,27.0,64,51,41,29.89,29.70,5,1,11,0.00
2012-4-6,59.0,46.3,34.0,36.0,27.1,20.0,69,49,29,30.05,29.89,8,2,17,0.00
2012-4-7,62.0,49.5,38.0,31.0,24.8,21.0,55,39,25,30.14,29.98,8,2,20,0.00
2012-4-8,69.0,53.0,37.0,41.0,30.9,20.0,55,44,29,30.04,29.71,7,2,17,0.00
2012-4-9,64.0,54.1,46.0,38.0,33.6,27.0,61,46,34,29.81,29.67,9,2,20,0.00
2012-4-10,61.0,50.2,40.0,39.0,34.5,30.0,83,57,36,29.82,29.68,6,1,16,0.00
2012-4-11,52.0,31.6,35.0,39.0,-2.3,-99.9,83,50,51,29.94,29.79,6,-266,15,0.00
2012-4-12,46.0,0.7,46.0,32.0,-97.9,-99.9,57,1,57,30.11,29.94,0,-976,0,0.00
2012-4-13,64.0,24.1,37.0,40.0,-43.0,-99.9,75,20,38,30.23,30.11,4,-564,9,0.00
2012-4-14,71.0,19.3,41.0,49.0,-47.0,-99.9,70,24,37,30.21,30.01,2,-604,4,0.00
2012-4-15,82.0,35.1,68.0,63.0,-25.5,-99.9,69,28,51,30.04,29.93,4,-533,12,0.00
2012-4-16,84.0,15.2,66.0,66.0,-65.9,-99.9,76,14,54,30.00,29.87,6,-786,7,0.00
2012-4-17,72.0,7.4,57.0,44.0,-82.9,-99.9,52,6,36,30.15,29.91,4,-878,4,0.00
2012-4-18,57.0,1.6,57.0,40.0,-95.9,-99.9,53,2,52,30.24,30.09,0,-970,0,0.00
2012-4-19,-200.0,0.0,200.0,-99.9,-99.9,-99.9,0,0,100,30.10,29.97,0,-999,0,0.00
2012-4-20,74.0,10.8,69.0,59.0,-80.4,-99.9,68,8,61,30.00,29.81,0,-854,6,0.00
2012-4-23,-200.0,0.0,200.0,-99.9,-99.9,-99.9,0,0,100,29.40,29.36,0,-999,0,0.00
2012-4-24,60.0,27.9,37.0,37.0,-29.6,-99.9,91,28,40,29.71,29.39,3,-471,10,0.07
2012-4-25,64.0,38.5,36.0,43.0,-7.3,-99.9,91,37,36,29.86,29.70,5,-302,15,0.05
2012-4-26,60.0,32.1,39.0,57.0,-13.3,-99.9,96,50,73,29.88,29.57,0,-416,3,0.02
2012-4-27,54.0,35.8,38.0,50.0,1.1,-99.9,89,47,50,30.15,29.62,6,-255,15,0.01
2012-4-28,54.0,37.8,34.0,39.0,11.0,-99.9,83,53,46,30.27,30.12,2,-168,6,0.01
2012-4-29,65.0,41.7,39.0,39.0,3.9,-99.9,88,39,32,30.22,30.08,4,-225,10,0.00
2012-4-30,60.0,44.6,34.0,48.0,18.5,-99.9,82,51,44,30.30,30.12,1,-140,9,0.01
2012-5-1,78.0,45.7,53.0,66.0,9.3,-99.9,97,55,63,30.12,29.92,0,-314,3,0.01
2012-5-2,60.0,4.8,54.0,57.0,-91.2,-99.9,95,5,90,30.11,29.98,0,-929,0,0.01
2012-5-3,73.0,25.5,54.0,67.0,-40.3,-99.9,98,33,81,30.14,30.00,0,-608,3,0.00
2012-5-4,81.0,44.3,57.0,72.0,4.0,-99.9,98,54,72,30.03,29.81,2,-374,11,0.00
2012-5-5,73.0,51.9,61.0,69.0,24.8,-99.9,99,67,79,29.98,29.80,0,-239,7,0.00
2012-5-6,60.0,27.2,57.0,58.0,-27.0,-99.9,96,45,92,30.03,29.96,0,-517,0,0.00
2012-5-20,84.0,75.9,66.0,64.0,60.1,53.0,89,60,40,30.16,30.11,0,0,0,0.00
2012-5-21,69.0,64.7,61.0,67.0,62.8,60.0,99,94,88,30.11,29.92,0,0,0,0.13
2012-5-22,75.0,66.3,62.0,67.0,63.2,60.0,99,91,73,29.92,29.76,0,0,0,0.03
2012-5-23,85.0,69.4,57.0,71.0,64.2,56.0,99,85,61,29.95,29.81,0,0,0,0.00
2012-5-24,84.0,70.6,65.0,73.0,65.7,63.0,98,86,53,30.09,29.95,0,0,0,0.03
2012-5-25,84.0,72.3,65.0,74.0,68.6,63.0,99,89,71,30.12,30.06,0,0,0,0.14
2012-5-26,87.0,73.9,65.0,78.0,70.1,64.0,99,89,72,30.11,30.03,0,0,0,0.01
2012-5-27,87.0,75.7,68.0,77.0,69.6,66.0,97,82,59,30.11,29.95,0,0,0,0.00
2012-5-28,92.0,76.4,62.0,77.0,69.8,61.0,98,81,61,29.98,29.87,0,0,0,0.00
2012-5-29,91.0,77.8,68.0,78.0,72.3,66.0,98,84,62,29.88,29.67,0,0,0,0.56
2012-5-30,83.0,71.3,65.0,70.0,66.6,62.0,98,87,59,29.76,29.67,0,0,0,0.60
2012-5-31,80.0,69.3,60.0,62.0,59.2,55.0,95,72,46,29.88,29.68,0,0,0,0.01
2012-6-1,74.0,65.1,56.0,69.0,60.8,53.0,98,86,71,29.91,29.64,4,0,10,0.26
2012-6-2,71.0,62.9,56.0,62.0,55.6,50.0,98,79,55,29.78,29.64,4,0,12,0.36
2012-6-3,76.0,61.7,52.0,62.0,53.5,-99.9,94,78,53,29.78,29.65,2,0,9,0.01
2012-6-4,68.0,59.4,54.0,59.0,55.6,52.0,97,88,67,29.75,29.58,3,0,8,0.01
2012-6-5,67.0,57.9,49.0,55.0,51.7,48.0,96,81,60,29.91,29.75,1,0,5,0.01
2012-6-6,75.0,60.5,47.0,59.0,52.6,45.0,97,77,49,29.97,29.91,1,0,5,0.00
2012-6-7,80.0,65.5,54.0,62.0,56.4,52.0,95,74,48,29.96,29.87,2,0,7,0.00
2012-6-8,82.0,68.1,55.0,63.0,57.3,52.0,94,71,45,29.95,29.84,3,0,6,0.00
2012-6-9,86.0,72.8,59.0,65.0,60.3,54.0,87,67,44,29.95,29.87,2,0,6,0.00
2012-6-10,91.0,75.6,61.0,70.0,63.7,-99.9,96,72,47,30.07,29.94,1,0,5,0.00
2012-6-11,84.0,73.3,64.0,75.0,68.3,62.0,96,85,70,30.13,30.05,0,0,5,0.01
2012-6-12,69.0,68.0,66.0,69.0,67.0,65.0,99,96,92,30.07,29.78,0,0,4,0.73
2012-6-13,78.0,69.2,63.0,67.0,61.0,56.0,99,77,54,30.01,29.80,6,1,12,0.01
2012-6-14,80.0,69.2,59.0,68.0,61.0,55.0,88,76,58,30.20,30.02,0,0,7,0.00
2012-6-15,81.0,68.1,56.0,67.0,60.3,54.0,97,78,57,30.25,30.18,0,0,6,0.00
2012-6-16,80.0,67.6,55.0,64.0,57.6,52.0,96,73,51,30.29,30.16,0,0,4,0.00
2012-6-17,75.0,63.5,54.0,64.0,57.0,-99.9,96,82,65,30.19,30.01,0,0,2,0.00
2012-6-18,69.0,62.2,54.0,63.0,58.5,52.0,95,88,80,30.09,30.03,0,0,1,0.00
2012-6-19,83.0,70.9,63.0,74.0,66.8,60.0,95,87,73,30.12,30.03,0,0,4,0.00
2012-6-20,93.0,80.4,67.0,78.0,72.9,65.0,99,80,57,30.07,29.93,1,0,5,0.00
2012-6-21,95.0,82.4,72.0,77.0,73.3,70.0,94,76,54,29.94,29.77,2,0,6,0.00
2012-6-22,92.0,80.4,71.0,76.0,72.7,68.0,95,79,57,29.79,29.69,3,0,9,0.14
2012-6-23,85.0,74.3,65.0,69.0,64.5,59.0,97,74,49,29.95,29.79,3,0,7,0.15
2012-6-24,86.0,72.9,58.0,68.0,62.7,55.0,96,72,51,29.98,29.84,1,0,4,0.01
2012-6-25,81.0,70.7,63.0,70.0,61.7,48.0,96,75,50,29.84,29.63,4,1,11,0.06
2012-6-26,76.0,65.3,55.0,57.0,52.0,48.0,81,63,47,29.79,29.71,6,1,15,0.04
2012-6-27,83.0,69.8,56.0,61.0,56.0,50.0,83,63,43,29.84,29.75,4,1,13,0.00
2012-6-28,90.0,75.8,60.0,69.0,63.0,55.0,90,67,45,29.85,29.70,0,0,5,0.00
2012-6-29,95.0,81.3,68.0,80.0,73.6,65.0,98,79,62,29.71,29.62,4,0,9,0.28
2012-6-30,90.0,79.1,69.0,75.0,71.0,67.0,97,78,55,29.78,29.67,1,0,5,0.06
2012-7-1,94.0,79.8,67.0,78.0,70.8,65.0,98,76,53,29.84,29.73,1,0,6,0.00
2012-7-2,88.0,77.5,67.0,67.0,63.9,60.0,87,65,42,29.91,29.83,4,0,10,0.00
2012-7-3,93.0,76.6,61.0,71.0,64.5,57.0,95,69,42,29.92,29.80,1,0,5,0.00
2012-7-4,94.0,81.5,71.0,76.0,71.7,66.0,93,73,54,29.83,29.71,2,0,6,0.01
2012-7-5,95.0,84.2,74.0,77.0,71.4,66.0,82,67,42,29.82,29.72,2,0,9,0.01
2012-7-6,96.0,81.0,66.0,74.0,67.6,60.0,84,66,47,29.90,29.81,1,0,6,0.00
2012-7-7,103.0,84.2,73.0,78.0,73.5,70.0,95,73,43,30.82,25.19,2,0,11,0.26
2012-7-8,86.0,78.1,72.0,76.0,72.7,71.0,99,85,63,30.85,29.76,1,0,5,0.26
2012-7-9,91.0,78.0,71.0,71.0,66.3,62.0,91,69,46,29.93,29.80,0,0,5,0.00
2012-7-10,91.0,76.0,68.0,73.0,67.5,64.0,95,76,47,30.02,29.91,0,0,4,0.03
2012-7-11,92.0,76.0,64.0,71.0,66.2,62.0,98,75,45,30.11,30.01,0,0,2,0.01
2012-7-12,93.0,75.8,62.0,69.0,64.1,59.0,97,70,44,30.14,30.09,0,0,3,0.00
2012-7-13,87.0,75.1,65.0,73.0,66.7,61.0,94,77,55,30.16,30.10,0,0,3,0.00
2012-7-14,79.0,71.7,66.0,73.0,68.4,65.0,97,90,78,31.10,30.08,0,0,0,0.27
2012-7-15,88.0,78.0,71.0,79.0,73.7,69.0,98,87,71,31.10,29.90,2,0,10,0.33
2012-7-16,90.0,77.9,70.0,77.0,72.5,69.0,99,85,60,29.93,29.77,2,0,7,0.33
2012-7-17,95.0,81.7,71.0,77.0,72.0,67.0,91,74,51,29.84,29.72,0,0,4,0.00
2012-7-18,99.0,81.6,74.0,84.0,74.4,69.0,93,80,56,29.84,29.72,1,0,8,0.00
2012-7-19,85.0,76.3,71.0,78.0,72.7,68.0,97,89,77,29.89,29.81,0,0,4,0.02
2012-7-20,71.0,66.8,62.0,69.0,65.7,61.0,98,96,92,29.98,29.81,1,0,5,0.27
2012-7-21,75.0,67.7,62.0,66.0,63.4,61.0,98,88,68,30.06,29.96,0,0,3,0.03
2012-7-22,84.0,72.7,65.0,73.0,68.1,63.0,97,86,66,30.11,30.04,0,0,6,0.01
2012-7-23,89.0,76.6,67.0,78.0,72.4,66.0,99,88,67,30.08,29.80,1,0,6,0.00
2012-7-24,92.0,80.8,71.0,80.0,73.6,66.0,96,80,59,30.70,29.57,3,0,9,0.00
2012-7-25,85.0,74.4,65.0,66.0,60.7,56.0,82,63,48,29.87,29.64,2,0,9,0.00
2012-7-26,92.0,75.4,66.0,82.0,70.5,62.0,97,85,66,29.78,29.59,4,0,17,0.33
2012-7-27,87.0,77.9,70.0,77.0,73.5,69.0,99,87,69,29.81,29.64,1,0,6,0.33
2012-7-28,89.0,77.5,69.0,79.0,72.0,66.0,98,84,65,29.87,29.79,1,0,7,0.00
2012-7-29,86.0,73.0,67.0,73.0,68.9,65.0,97,88,63,31.95,29.84,0,0,6,0.02
2012-7-30,89.0,75.7,68.0,75.0,70.2,67.0,98,85,58,30.02,29.96,0,0,3,0.02
2012-7-31,86.0,74.4,65.0,74.0,68.3,64.0,98,82,63,30.00,29.84,0,0,1,0.01
2012-8-1,85.0,74.9,69.0,76.0,70.1,65.0,97,86,70,29.87,29.76,1,0,3,0.00
2012-8-2,92.0,77.3,65.0,76.0,70.6,64.0,99,82,55,29.87,29.79,0,0,3,0.00
2012-8-3,95.0,78.1,68.0,80.0,72.7,67.0,99,84,58,30.03,29.87,0,0,3,0.00
2012-8-4,91.0,78.9,70.0,80.0,73.4,68.0,98,84,60,30.11,30.03,0,0,3,0.00
2012-8-5,92.0,79.5,73.0,79.0,74.6,71.0,98,86,63,30.09,29.91,2,0,12,0.42
2012-8-6,87.0,77.4,69.0,75.0,71.6,66.0,99,84,61,29.98,29.89,1,0,4,0.14
2012-8-7,85.0,73.3,62.0,72.0,66.9,60.0,97,82,63,29.95,29.89,0,0,3,0.01
2012-8-8,88.0,76.8,68.0,77.0,70.5,66.0,99,82,60,29.92,29.85,0,0,1,0.00
2012-8-9,91.0,77.9,67.0,78.0,72.4,66.0,99,84,63,29.89,29.77,0,0,3,0.02
2012-8-10,82.0,75.5,70.0,75.0,72.6,68.0,99,91,76,29.79,29.57,0,0,2,0.47
2012-8-11,85.0,75.8,70.0,75.0,70.8,68.0,98,85,64,29.86,29.62,0,0,4,0.48
2012-8-12,82.0,71.8,63.0,69.0,64.8,-99.9,97,82,62,29.92,29.83,1,0,5,0.47
2012-8-13,84.0,71.8,60.0,69.0,64.1,58.0,96,78,55,29.97,29.88,1,0,4,0.00
2012-8-14,80.0,71.1,64.0,75.0,68.6,62.0,99,92,78,29.91,29.78,0,0,4,0.10
2012-8-15,80.0,72.3,66.0,74.0,69.2,65.0,98,90,79,29.83,29.75,0,0,5,0.01
2012-8-16,84.0,72.6,64.0,71.0,65.3,62.0,97,79,53,29.89,29.47,1,0,7,0.00
2012-8-17,87.0,73.9,64.0,75.0,67.8,62.0,98,83,58,29.85,29.50,0,0,5,0.00
2012-8-18,80.0,69.9,61.0,68.0,63.7,56.0,97,82,56,29.87,29.77,2,0,6,0.00
2012-8-19,76.0,64.8,55.0,65.0,60.0,53.0,97,85,65,29.88,29.37,0,0,1,0.00
2012-8-20,79.0,67.9,61.0,67.0,62.9,60.0,97,85,62,29.89,29.72,0,0,4,0.04
2012-8-21,80.0,68.5,60.0,68.0,62.7,58.0,98,83,60,30.01,29.81,0,0,3,0.04
2012-8-22,85.0,69.2,57.0,70.0,62.7,55.0,99,81,55,30.06,29.62,0,0,2,0.00
2012-8-23,86.0,71.8,60.0,71.0,64.8,59.0,98,81,50,30.07,29.84,0,0,2,0.00
2012-8-24,87.0,73.5,62.0,72.0,65.5,60.0,99,78,52,30.09,29.74,0,0,1,0.00
2012-8-25,80.0,71.8,65.0,71.0,67.2,63.0,96,86,72,30.14,29.74,0,0,2,0.00
2012-8-26,85.0,73.3,65.0,72.0,67.6,64.0,97,83,58,30.14,29.80,0,0,4,0.01
2012-8-27,87.0,75.3,67.0,77.0,71.1,66.0,99,88,64,30.09,29.71,1,0,5,0.01
2012-8-28,85.0,75.8,67.0,74.0,69.1,62.0,98,82,55,29.88,29.76,3,0,7,0.00
2012-8-29,81.0,70.1,61.0,65.0,61.5,57.0,90,76,55,29.94,29.67,1,0,6,0.00
2012-8-30,84.0,68.8,56.0,66.0,60.4,54.0,96,77,48,30.01,29.59,0,0,3,0.00
2012-8-31,89.0,74.8,63.0,73.0,65.9,60.0,99,77,46,29.99,29.76,2,0,5,0.00
2012-9-1,88.0,77.1,69.0,74.0,68.0,64.0,90,75,55,29.92,29.18,1,0,5,0.00
2012-9-2,75.0,72.0,68.0,74.0,70.1,64.0,98,94,84,29.77,28.04,0,0,2,0.01
2012-9-3,73.0,71.8,71.0,73.0,71.1,70.0,99,98,97,29.84,28.69,0,0,1,0.01
2012-9-4,85.0,76.7,71.0,80.0,74.3,71.0,100,93,76,29.89,29.18,0,0,5,0.00
2012-9-5,83.0,76.5,68.0,77.0,72.7,66.0,96,88,74,29.57,27.82,2,0,7,0.15
2012-9-6,82.0,71.5,65.0,73.0,68.3,63.0,98,90,73,29.70,28.37,0,0,3,0.40
2012-9-7,88.0,75.5,67.0,78.0,70.9,66.0,99,87,64,28.47,27.07,0,0,5,0.05
2012-9-8,85.0,72.1,64.0,76.0,69.3,63.0,98,91,70,29.74,16.76,2,0,7,0.05
2012-9-9,78.0,65.1,56.0,63.0,58.9,54.0,97,82,55,29.50,28.90,1,0,7,0.17
2012-9-10,72.0,61.9,53.0,56.0,52.5,48.0,93,73,51,29.98,29.22,4,0,10,0.03
2012-9-11,75.0,59.3,46.0,57.0,50.6,43.0,96,75,45,32.27,28.39,1,0,5,0.01
2012-9-12,80.0,62.8,50.0,62.0,54.7,48.0,98,78,49,32.34,29.34,0,0,5,0.00
2012-9-13,80.0,64.3,52.0,66.0,57.4,50.0,98,80,56,31.46,28.46,0,0,2,0.01
2012-9-14,80.0,64.9,52.0,68.0,58.6,50.0,99,82,57,30.76,27.94,0,0,3,0.01
2012-9-15,73.0,63.4,54.0,62.0,54.0,50.0,96,73,52,29.15,27.90,3,0,10,0.00
2012-9-16,74.0,60.0,51.0,58.0,51.6,48.0,95,76,45,30.30,26.77,1,0,5,0.00
2012-9-17,79.0,62.8,48.0,64.0,55.2,46.0,98,79,50,30.35,25.96,0,0,4,0.00
2012-9-18,74.0,68.9,66.0,72.0,67.4,63.0,98,96,88,29.20,26.75,2,0,10,0.07
2012-9-19,69.0,60.4,49.0,66.0,53.4,45.0,98,80,52,28.85,27.23,3,0,7,0.22
2012-9-20,72.0,57.3,44.0,58.0,51.3,42.0,97,82,59,30.20,28.17,0,0,4,0.09
2012-9-21,78.0,61.9,48.0,66.0,56.4,46.0,100,84,61,29.62,29.17,0,0,2,0.01
2012-9-22,82.0,68.2,59.0,70.0,63.8,57.0,98,87,65,30.89,28.88,1,0,5,0.01
2012-9-23,66.0,57.1,48.0,58.0,47.4,-99.9,89,73,51,29.85,29.15,2,0,9,0.01
2012-9-24,66.0,53.7,45.0,50.0,45.3,41.0,93,76,46,29.82,29.47,2,0,6,0.00
2012-9-25,73.0,57.0,42.0,58.0,50.0,40.0,97,79,53,30.05,29.48,0,0,7,0.01
2012-9-26,78.0,67.0,60.0,68.0,61.9,55.0,94,84,71,29.87,29.20,0,0,4,0.01
2012-9-27,73.0,66.4,62.0,68.0,63.8,61.0,99,92,76,29.62,28.62,1,0,4,0.01
2012-9-28,75.0,67.4,60.0,69.0,63.5,54.0,99,88,74,29.10,27.70,1,0,5,0.01
2012-9-29,64.0,58.3,53.0,56.0,53.5,50.0,93,84,72,32.16,27.70,1,0,7,0.01
2012-9-30,70.0,56.7,49.0,56.0,51.4,47.0,95,84,56,32.48,28.77,2,0,8,0.05
2012-10-1,71.0,57.9,47.0,57.0,51.6,46.0,97,81,52,32.39,28.91,2,0,7,0.02
2012-10-2,64.0,61.3,59.0,64.0,60.1,57.0,99,96,92,29.34,28.97,0,0,2,0.68
2012-10-3,75.0,68.0,64.0,73.0,67.1,64.0,100,97,88,29.28,28.50,1,0,6,0.02
2012-10-4,75.0,68.1,60.0,73.0,66.3,58.0,99,94,81,32.49,26.77,3,0,7,0.01
2012-10-5,79.0,65.7,57.0,66.0,60.0,54.0,96,83,62,28.04,26.86,2,0,10,0.01
2012-10-6,70.0,61.5,53.0,65.0,56.6,43.0,98,84,67,31.70,26.42,5,0,13,0.00
2012-10-7,53.0,48.3,43.0,47.0,44.2,39.0,93,86,69,29.66,28.06,1,0,6,0.09
2012-10-8,51.0,45.4,39.0,45.0,42.4,37.0,95,89,79,32.18,29.56,0,0,4,0.06
2012-10-9,55.0,50.9,46.0,53.0,49.0,43.0,96,93,88,29.93,29.58,0,0,6,0.02
2012-10-10,66.0,57.6,51.0,58.0,52.3,42.0,98,84,59,29.78,29.02,5,0,11,0.01
2012-10-11,61.0,49.2,42.0,42.0,39.2,35.0,89,69,48,29.99,29.39,5,0,10,0.01
2012-10-12,57.0,46.9,39.0,46.0,38.2,31.0,96,74,50,30.14,29.62,7,1,18,0.00
2012-10-13,58.0,43.5,30.0,39.0,33.2,26.0,91,68,45,30.37,29.36,0,0,4,0.00
2012-10-14,70.0,56.7,40.0,58.0,50.1,36.0,96,80,61,30.96,29.22,1,0,8,0.00
2012-10-15,66.0,61.5,54.0,63.0,59.2,53.0,97,92,85,29.50,27.86,1,0,6,0.60
2012-10-16,59.0,51.4,43.0,52.0,44.7,39.0,94,79,59,29.64,28.97,7,1,13,0.01
2012-10-17,64.0,48.9,37.0,51.0,43.0,35.0,97,82,59,29.85,29.24,0,0,2,0.00
2012-10-18,68.0,55.1,42.0,59.0,50.1,40.0,98,85,62,29.57,29.08,1,0,5,0.00
2012-10-19,71.0,64.7,59.0,68.0,63.0,58.0,99,94,86,29.39,28.97,1,0,6,0.59
2012-10-20,61.0,54.8,47.0,59.0,49.4,42.0,97,83,60,29.38,28.74,4,0,10,0.20
2012-10-21,63.0,52.1,45.0,50.0,44.8,41.0,90,77,57,29.88,29.15,5,0,10,0.01
2012-10-22,66.0,53.8,45.0,51.0,45.2,40.0,86,73,53,29.95,29.63,3,0,8,0.00
2012-10-23,71.0,57.7,47.0,64.0,53.8,44.0,95,87,76,29.94,29.58,0,0,6,0.01
2012-10-24,79.0,62.2,52.0,63.0,56.8,50.0,97,84,55,32.37,29.50,0,0,3,0.01
2012-10-25,62.0,59.5,58.0,60.0,58.1,57.0,98,96,93,29.77,29.51,0,0,1,0.00
2012-10-26,65.0,60.7,58.0,61.0,58.6,56.0,97,93,85,30.93,29.34,0,0,1,0.00
2012-10-27,65.0,60.0,57.0,59.0,56.3,53.0,95,88,77,29.74,28.85,0,0,3,0.00
2012-10-28,57.0,54.1,52.0,54.0,50.8,46.0,96,89,78,29.40,28.19,2,0,11,0.37
2012-10-29,58.0,52.2,50.0,58.0,50.7,48.0,99,95,87,32.43,27.47,12,4,29,4.11
2012-10-30,55.0,47.4,43.0,54.0,46.4,42.0,98,97,97,32.10,28.88,1,0,12,3.78
2012-10-31,44.0,43.8,43.0,43.0,14.7,-99.9,97,72,83,28.88,28.62,1,-182,4,0.00
2012-11-1,49.0,46.0,42.0,43.0,38.0,-99.9,87,80,77,29.36,28.95,1,-17,9,0.00
2012-11-2,41.0,41.0,41.0,36.0,-18.4,-99.9,83,50,82,29.29,29.10,0,-400,4,0.00
2012-11-3,46.0,43.5,40.0,36.0,34.3,32.0,80,70,66,29.64,29.17,6,2,16,0.00
2012-11-4,43.0,40.9,39.0,34.0,30.6,-99.9,75,70,68,29.88,29.50,4,-10,13,0.00
2012-11-5,43.0,38.4,33.0,31.0,27.7,-99.9,77,68,62,29.98,29.70,6,-10,12,0.00
2012-11-6,43.0,37.0,25.0,30.0,27.2,21.0,87,68,58,30.05,29.83,0,0,3,0.00
2012-11-7,40.0,37.7,34.0,34.0,27.1,-99.9,93,74,69,29.82,29.24,3,-29,10,0.07
2012-11-8,49.0,43.8,38.0,29.0,25.6,22.0,61,49,43,29.86,29.32,9,3,23,0.06
2012-11-9,54.0,46.7,37.0,38.0,33.7,-99.9,79,64,55,30.06,29.82,6,1,14,0.00
2012-11-10,59.0,50.5,36.0,45.0,41.4,34.0,95,72,55,30.26,30.01,0,0,4,0.00
2012-11-11,67.0,56.9,38.0,52.0,48.1,37.0,97,74,51,30.23,29.60,0,0,3,0.00
2012-11-12,68.0,59.3,44.0,60.0,54.9,43.0,98,86,74,30.23,29.62,1,0,5,0.00
2012-11-13,48.0,42.6,40.0,40.0,36.5,32.0,96,80,61,30.18,29.70,6,1,12,0.09
2012-11-14,48.0,41.4,33.0,33.0,26.2,-99.9,76,60,51,30.29,29.83,3,-13,10,0.01
2012-11-15,48.0,42.4,33.0,34.0,31.1,27.0,78,65,55,30.30,29.93,0,0,4,0.00
2012-11-16,50.0,44.1,34.0,34.0,32.3,29.0,83,64,54,30.26,29.99,2,0,7,0.00
2012-11-17,55.0,46.5,34.0,37.0,33.5,28.0,81,61,48,30.34,29.86,1,0,5,0.00
2012-11-18,52.0,46.0,36.0,41.0,36.0,-99.9,87,72,64,30.41,30.00,0,-13,4,0.00
2012-11-19,53.0,45.9,36.0,44.0,39.5,33.0,90,79,70,30.31,29.69,2,0,5,0.00
2012-11-20,51.0,46.4,35.0,42.0,38.5,33.0,96,75,62,29.92,29.65,1,0,3,0.00
2012-11-21,56.0,47.0,32.0,38.0,29.2,-99.9,93,59,48,30.05,29.58,0,-38,7,0.00
2012-11-22,58.0,49.8,34.0,40.0,36.9,29.0,82,62,47,30.06,29.70,0,0,4,0.00
2012-11-23,59.0,51.8,33.0,45.0,38.9,32.0,97,63,47,29.82,29.03,2,0,10,0.00
2012-11-24,40.0,38.1,35.0,27.0,25.1,23.0,65,59,55,29.48,29.16,8,3,19,0.00
2012-11-25,38.0,33.6,27.0,26.0,22.4,-99.9,80,66,59,29.62,29.07,4,-12,13,0.00
2012-11-26,48.0,40.8,31.0,33.0,28.6,24.0,78,62,51,30.17,29.61,2,0,10,0.00
2012-11-27,34.0,34.0,34.0,32.0,-20.8,-99.9,93,56,93,29.94,29.54,0,-400,1,0.02
2012-11-28,39.0,35.7,30.0,30.0,24.2,-99.9,93,72,68,30.11,29.70,4,-30,12,0.10
2012-11-29,44.0,41.5,29.0,32.0,29.4,24.0,81,62,57,30.22,29.57,2,0,12,0.04
2012-11-30,47.0,41.0,27.0,34.0,31.5,24.0,92,70,57,30.25,30.15,0,0,3,0.01
2012-12-1,50.0,45.9,37.0,43.0,32.1,-99.9,93,77,78,30.30,29.74,0,-64,3,0.00
2012-12-2,53.0,50.2,41.0,48.0,46.3,40.0,96,86,81,30.64,29.47,2,0,7,0.00
2012-12-3,65.0,60.8,47.0,57.0,47.0,-99.9,92,75,73,29.91,29.60,4,-33,7,0.00
2012-12-4,66.0,62.4,55.0,59.0,56.5,54.0,97,81,73,29.79,29.54,3,0,6,0.00
2012-12-5,53.0,46.9,37.0,43.0,35.2,25.0,78,64,56,29.93,29.34,8,3,19,0.00
2012-12-6,43.0,37.0,27.0,27.0,24.7,21.0,77,61,51,30.11,29.73,0,0,8,0.00
2012-12-7,34.0,34.0,34.0,31.0,31.0,31.0,90,90,90,29.65,29.60,0,0,0,0.01
2012-12-8,43.0,43.0,43.0,42.0,42.0,42.0,97,97,97,29.21,29.21,0,0,0,0.00
2012-12-9,46.0,46.0,46.0,-99.9,-99.9,-99.9,0,0,100,29.51,29.51,0,0,0,0.00
2012-12-11,48.0,44.1,41.0,40.0,34.1,-99.9,94,73,64,29.69,29.13,4,-16,13,0.00
2012-12-12,43.0,39.2,31.0,32.0,30.0,27.0,85,70,63,30.19,29.78,3,0,7,0.00
2012-12-13,45.0,41.4,28.0,31.0,27.8,24.0,86,59,50,30.27,29.94,1,0,5,0.00
2012-12-14,50.0,44.0,30.0,35.0,29.5,-99.9,81,61,47,30.09,29.56,2,-15,11,0.00
2012-12-15,49.0,43.5,31.0,37.0,34.5,28.0,92,71,62,30.16,29.77,0,0,3,0.00
2012-12-16,43.0,43.0,43.0,41.0,41.0,41.0,93,93,93,29.63,29.63,0,0,0,0.00
2012-12-18,57.0,49.9,44.0,53.0,41.4,-99.9,99,79,69,29.35,28.90,8,-18,19,0.01
2012-12-19,47.0,43.2,34.0,38.0,32.8,-99.9,88,72,66,29.65,29.14,7,-12,17,0.01
2012-12-20,44.0,41.5,33.0,36.0,27.1,-99.9,91,68,65,29.76,29.06,2,-45,7,0.01
2012-12-22,39.0,36.8,34.0,29.0,26.1,24.0,73,65,58,29.60,29.08,11,6,24,0.00
2012-12-23,46.0,40.2,32.0,29.0,25.1,23.0,72,55,42,29.87,29.36,6,1,13,0.00
2012-12-24,39.0,36.8,33.0,30.0,28.4,27.0,88,71,66,29.91,29.73,0,0,5,0.00
2012-12-25,40.0,38.4,36.0,36.0,31.0,-99.9,95,83,76,30.03,29.59,4,-21,12,0.19
2012-12-27,34.0,33.3,33.0,32.0,29.2,28.0,93,84,80,29.61,29.23,12,4,22,0.01